Regional Weather Roundup
Issued by NWS

Home | Current Version | Previous Version | Graphics & Text | Print | Product List | Glossary On
Versions: 1 2 3 4 5 6 7 8 9 10 11 12 13 14 15 16 17 18 19 20 21 22 23 24 25 26 27 28 29 30 31 32 33 34 35 36 37 38 39 40 41 42 43 44 45 46 47 48 49 50
000
ASUS43 KDMX 311607
RWRIA

WEATHER ROUNDUP FOR IOWA
NATIONAL WEATHER SERVICE DES MOINES IA
1100 AM CDT SUN AUG 31 2014

NOTE: "FAIR" INDICATES FEW OR NO CLOUDS BELOW 12,000 FEET WITH NO
SIGNIFICANT WEATHER AND/OR OBSTRUCTIONS TO VISIBILITY.

* - THESE STATIONS ARE NOT NWS STATIONS...THUS NOT UNDER NWS
QUALITY CONTROL.  THEY ALSO DO NOT REPORT WEATHER SUCH
AS PRECIPITATION OR FOG.

IAZ001>003-012>014-020>022-031>034-043>046-311700-
   NORTHWEST IOWA

CITY           SKY/WX    TMP DP  RH WIND       PRES   REMARKS
CARROLL *      SUNNY     81  70  69 S15G21    29.78F HX  84
CHEROKEE *     PTSUNNY   77  70  78 SW15      29.78R
DENISON *      MOSUNNY   77  68  73 SW12G24   29.79R
LE MARS *      PTSUNNY   73  68  83 S10G17    29.77R
ORANGE CITY *  MOSUNNY   75  64  69 S18G24    29.77R
SHELDON *      SUNNY     75  68  78 S17       29.75R
SIOUX CITY     CLOUDY    74  66  76 S3        29.76S
SPENCER        PTSUNNY   80  68  66 S15G23    29.77R HX  83
STORM LAKE *   SUNNY     75  72  88 SW10G18   29.79R
$$

IAZ055>058-069>071-079>083-090>094-311700-
   SOUTHWEST IOWA

CITY           SKY/WX    TMP DP  RH WIND       PRES   REMARKS
ATLANTIC *     SUNNY     81  70  69 S17       29.81S HX  84
AUDUBON *      SUNNY     82  73  74 S15G21    29.82F HX  88
CLARINDA *     SUNNY     79  72  78 S10       29.85S HX  82
COUNCIL BLFS * SUNNY     77  70  78 S13       29.79F
CRESTON *      SUNNY     81  70  69 S16       29.87S HX  84
HARLAN  *      SUNNY     79  70  73 S13G22    29.83S HX  81
LAMONI         SUNNY     81  71  71 S10       29.88F HX  85
RED OAK *      SUNNY     79  70  73 S14G20    29.82F HX  81
SHENANDOAH *   SUNNY     77  70  78 SE12      29.82F
$$

IAZ047>049-059>061-072>074-084-311700-
   CENTRAL IOWA

CITY           SKY/WX    TMP DP  RH WIND       PRES   REMARKS
AMES           MOSUNNY   79  70  74 S10       29.84F HX  82
ANKENY *       SUNNY     81  72  74 S14       29.85S HX  84
CHARITON *     SUNNY     81  72  74 S13G18    29.89S HX  84
DES MOINES     MOSUNNY   83  71  67 S14       29.85S HX  87
GRINNELL*      SUNNY     79  68  69 S13       29.90F HX  81
KNOXVILLE *    SUNNY     81  72  74 S14       29.86F HX  84
MARSHALLTOWN   SUNNY     80  69  69 S14G23    29.85F HX  83
PELLA *        SUNNY     82  72  69 S12G17    29.89F HX  87
PERRY *          N/A     79  72  78 S12G18    29.83F HX  82
$$

IAZ004>006-015-016-023>025-035-036-311700-
   NORTH CENTRAL IOWA

CITY           SKY/WX    TMP DP  RH WIND       PRES   REMARKS
ALGONA *       SUNNY     79  70  73 S17G26    29.78F HX  81
CLARION *      MOSUNNY   79  70  73 S15G22    29.81F HX  81
ESTHERVILLE    MOSUNNY   75  67  76 S16G22    29.76S
FORT DODGE *   MOSUNNY   81  70  69 S14G24    29.81F HX  84
MASON CITY     PTSUNNY   78  69  73 S15       29.83F HX  80
FOREST CITY *  SUNNY     77  70  78 S15G21    29.81F
IOWA FALLS *     N/A     79  70  73 S16       29.86F HX  81
$$

IAZ007>011-017>019-026>030-037>042-050>054-066-311700-
   NORTHEAST IOWA

CITY           SKY/WX    TMP DP  RH WIND       PRES   REMARKS
CEDAR RAPIDS   SUNNY     79  71  76 S10       29.91S HX  82
CHARLES CITY * SUNNY     77  70  78 S12       29.87S
CLINTON *      SUNNY     79  70  73 S8        29.96S HX  81
DECORAH *      MOSUNNY   77  70  78 S12G20    29.87F
DUBUQUE        SUNNY     77  68  73 S14       29.93F
MONTICELLO *   MOSUNNY   79  72  78 S9G16     29.91F HX  82
OELWEIN *      MOSUNNY   79  70  73 S16       29.90F HX  81
WATERLOO       SUNNY     80  69  69 S16       29.86F HX  83
$$

IAZ064-065-067-068-078-311700-
   EAST CENTRAL IOWA

CITY           SKY/WX    TMP DP  RH WIND       PRES   REMARKS
DAVENPORT      SUNNY     80  68  66 S9        29.94S HX  83
IOWA CITY      SUNNY     79  72  79 S10       29.92F HX  82
MT. PLEASANT * SUNNY     82  68  61 S10       29.93S HX  85
MUSCATINE *    SUNNY     81  70  69 SE10      29.92F HX  84
QUAD CITIES    SUNNY     81  68  64 S7        29.93S HX  84
$$

IAZ062-063-075>077-085>089-095>099-311700-
   SOUTHEAST IOWA

CITY           SKY/WX    TMP DP  RH WIND       PRES   REMARKS
BURLINGTON     SUNNY     80  73  79 S8        29.94R HX  84
FAIRFIELD *    SUNNY     81  70  69 S12       29.93R HX  84
FORT MADISON * SUNNY     82  75  78 S7        29.95R HX  89
KEOKUK *       SUNNY     81  73  78 S8        29.93S HX  85
OSKALOOSA *      N/A     81  72  74 S13       29.92R HX  84
CENTERVILLE *  SUNNY     81  73  78 S7        29.93S HX  85
OTTUMWA        SUNNY     81  71  71 S12       29.91S HX  85
WASHINGTON *   SUNNY     81  73  78 S14       29.92S HX  85
$$

ABBREVIATIONS USED IN REMARKS
   TC - TEMPERATURES IN CELSIUS
  WCI - WIND CHILL INDEX
   HX - HEAT INDEX
  VSB - VISIBILITY
$$



USA.gov is the U.S. government's official web portal to all federal, state and local government web resources and services.